STARLINK-35047, 65806

Orbit data source: Space-Track

STARLINK-35047, 65806 is a payload satellite owned by SpaceX/Seattle (US) in SSO that was launched on Fri, 26 Sep 2025 UTC via an FALCON 9 launch vehicle from the Air Force Western Test Range (AFWTR). Payload-class satellites include a variety of spacecraft equipped with specific instruments for various scientific and technological missions. These include communications satellites like Starlink; space stations such as the ISS; scientific satellites like the Hubble; Earth observation satellites from companies like Planet Labs, Umbra, and HawkEye 360; GPS; miniature CubeSats for education and research; and military/defense satellites.

Loading next visibility...
Identifier
65806, 2025-218R
Orbit
SSO
Country
Flag of USUS
Related business
Manufacturer
SpaceX/Seattle
Mission
Operational Commercial Communications
Bus & Motor
STARLINK V2MO, Unknown motor
Mass
575 kg wet, ~530 kg dry
Launch date (UTC)
2025-09-26 (5 months ago)
Launch vehicle
FALCON 9
Launch site
Air Force Western Test Range (AFWTR)
Object type
Payload
Rocket body
Debris
Shape & HBR
Box + 2 Pan, 17.7 m
Radar Cross Section
36.964 m²

Expand to show TLE details & history
Last TLE update: 8 hours ago

TLE from 8 hours ago
0 STARLINK-35047
1 65806U 25218R   26062.60258941  .00006357  00000-0  44429-3 0  9991
2 65806  97.6023 286.9532 0002684  78.7799 281.3729 15.05656477 24055
Epoch: 2026-03-03T14:27Z
TLE epoch observation values (Epoch: 2026-03-03T14:27:43.725Z)
Latitude
-0.00003°
Longitude
-91.35827°
Altitude
552.19 km
Speed
7.586 km/s
True Right ascension
19h 07m 48s
True Declination
0° 00' 00"
Sunlit
Object was in daylight at epoch
Visualization orbit readout
Latitude
Unknown
Longitude
Unknown
Altitude
Unknown
Speed
Unknown
Apparent Right ascension
Unknown
Apparent Declination
Unknown
Sunlit
N/A
Visualization observer readout
Local Sidereal Time
02:42:41
Azimuth
Unknown
Elevation
Unknown
Doppler factor
Unknown
Orbital elements
Apogee altitude
548.343 km
Perigee altitude
544.626 km
Semi-major axis
6,924.622 km
Eccentricity
0.00027
Inclination
97.6023°
RAAN
286.9532°
Arg. of periapsis
78.7799°
True anomaly
281.34275°
Mean anomaly
281.3729°
Eccentric anomaly
281.35782°
Mean motion
3.7666 °/min
Orbital period
95.58 mins
BSTAR
0.00044429
Loading maneuver chart data...
Computing Atmospheric mass density...
Loading historical data...
Loading historical data...
Loading historical data...
Loading historical data...
Loading historical data...
Loading historical data...
Loading historical data...

Documentation

Showing up to 5 results
|